Year,Month,Day,Hour,Minute,Value (Times are PST for temperature in C)
2011,10,15,00,00,8.80
2011,10,15,00,01,8.80
2011,10,15,00,02,8.80
2011,10,15,00,03,8.80
2011,10,15,00,04,8.80
2011,10,15,00,05,8.80
2011,10,15,00,06,8.80
2011,10,15,00,07,8.90
2011,10,15,00,08,8.90
2011,10,15,00,09,8.90
2011,10,15,00,10,8.90
2011,10,15,00,11,8.90
2011,10,15,00,12,8.90
2011,10,15,00,16,8.90
2011,10,15,00,17,8.90
2011,10,15,00,18,8.90
2011,10,15,00,19,8.90
2011,10,15,00,20,8.90
2011,10,15,00,21,8.90
2011,10,15,00,22,8.90
2011,10,15,00,23,8.90
2011,10,15,00,24,8.90
2011,10,15,00,25,8.90
2011,10,15,00,26,8.80
2011,10,15,00,27,8.80
2011,10,15,00,28,8.80
2011,10,15,00,29,8.80
2011,10,15,00,30,8.80
2011,10,15,00,31,8.80
2011,10,15,00,32,8.70
2011,10,15,00,33,8.70
2011,10,15,00,34,8.70
2011,10,15,00,35,8.70
2011,10,15,00,36,8.70
2011,10,15,00,37,8.70
2011,10,15,00,38,8.70
2011,10,15,00,39,8.70
2011,10,15,00,40,8.70
2011,10,15,00,41,8.70
2011,10,15,00,42,8.70
2011,10,15,00,43,8.70
2011,10,15,00,44,8.60
2011,10,15,00,45,8.60
2011,10,15,00,46,8.60
2011,10,15,00,47,8.60
2011,10,15,00,48,8.50
2011,10,15,00,49,8.50
2011,10,15,00,50,8.50
2011,10,15,00,51,8.40
2011,10,15,00,52,8.40
2011,10,15,00,53,8.40
2011,10,15,00,54,8.40
2011,10,15,00,55,8.40
2011,10,15,00,56,8.30
2011,10,15,00,57,8.30
2011,10,15,00,58,8.30
2011,10,15,00,59,8.30
2011,10,15,01,00,8.30
2011,10,15,01,01,8.20
2011,10,15,01,02,8.20
2011,10,15,01,03,8.20
2011,10,15,01,04,8.20
2011,10,15,01,05,8.10
2011,10,15,01,06,8.10
2011,10,15,01,07,8.10
2011,10,15,01,08,8.00
2011,10,15,01,09,8.00
2011,10,15,01,10,7.90
2011,10,15,01,11,7.90
2011,10,15,01,12,7.90
2011,10,15,01,13,7.80
2011,10,15,01,14,7.80
2011,10,15,01,15,7.80
2011,10,15,01,16,7.70
2011,10,15,01,17,7.70
2011,10,15,01,18,7.70
2011,10,15,01,19,7.60
2011,10,15,01,20,7.60
2011,10,15,01,21,7.60
2011,10,15,01,22,7.50
2011,10,15,01,23,7.50
2011,10,15,01,24,7.50
2011,10,15,01,25,7.40
2011,10,15,01,26,7.40
2011,10,15,01,27,7.40
2011,10,15,01,28,7.40
2011,10,15,01,29,7.40
2011,10,15,01,30,7.40
2011,10,15,01,31,7.40
2011,10,15,01,32,7.40
2011,10,15,01,33,7.40
2011,10,15,01,34,7.40
2011,10,15,01,35,7.40
2011,10,15,01,36,7.40
2011,10,15,01,37,7.40
2011,10,15,01,38,7.40
2011,10,15,01,39,7.40
2011,10,15,01,40,7.40
2011,10,15,01,41,7.40
2011,10,15,01,42,7.40
2011,10,15,01,43,7.50
2011,10,15,01,44,7.50
2011,10,15,01,45,7.50
2011,10,15,01,46,7.60
2011,10,15,01,47,7.60
2011,10,15,01,48,7.60
2011,10,15,01,49,7.60
2011,10,15,01,50,7.70
2011,10,15,01,51,7.70
2011,10,15,01,52,7.70
2011,10,15,01,53,7.70
2011,10,15,01,54,7.70
2011,10,15,01,55,7.70
2011,10,15,01,56,7.70
2011,10,15,01,57,7.70
2011,10,15,01,58,7.70
2011,10,15,01,59,7.70
2011,10,15,02,00,7.70
2011,10,15,02,01,7.70
2011,10,15,02,02,7.70
2011,10,15,02,03,7.70
2011,10,15,02,04,7.70
2011,10,15,02,05,7.70
2011,10,15,02,06,7.70
2011,10,15,02,07,7.70
2011,10,15,02,08,7.70
2011,10,15,02,09,7.70
2011,10,15,02,10,7.70
2011,10,15,02,11,7.70
2011,10,15,02,12,7.70
2011,10,15,02,13,7.80
2011,10,15,02,14,7.80
2011,10,15,02,15,7.80
2011,10,15,02,16,7.80
2011,10,15,02,17,7.80
2011,10,15,02,18,7.80
2011,10,15,02,19,7.80
2011,10,15,02,20,7.80
2011,10,15,02,21,7.80
2011,10,15,02,22,7.70
2011,10,15,02,23,7.70
2011,10,15,02,24,7.70
2011,10,15,02,25,7.70
2011,10,15,02,26,7.70
2011,10,15,02,27,7.70
2011,10,15,02,28,7.70
2011,10,15,02,29,7.70
2011,10,15,02,30,7.70
2011,10,15,02,31,7.70
2011,10,15,02,32,7.60
2011,10,15,02,33,7.60
2011,10,15,02,34,7.60
2011,10,15,02,35,7.60
2011,10,15,02,36,7.50
2011,10,15,02,37,7.50
2011,10,15,02,38,7.50
2011,10,15,02,39,7.40
2011,10,15,02,40,7.40
2011,10,15,02,41,7.40
2011,10,15,02,42,7.40
2011,10,15,02,43,7.40
2011,10,15,02,44,7.40
2011,10,15,02,45,7.50
2011,10,15,02,46,7.50
2011,10,15,02,47,7.50
2011,10,15,02,48,7.50
2011,10,15,02,49,7.60
2011,10,15,02,50,7.60
2011,10,15,02,51,7.60
2011,10,15,02,52,7.60
2011,10,15,02,53,7.60
2011,10,15,02,54,7.60
2011,10,15,02,55,7.60
2011,10,15,02,56,7.60
2011,10,15,02,57,7.50
2011,10,15,02,58,7.50
2011,10,15,02,59,7.50
2011,10,15,03,00,7.40
2011,10,15,03,01,7.40
2011,10,15,03,02,7.40
2011,10,15,03,03,7.40
2011,10,15,03,04,7.40
2011,10,15,03,05,7.30
2011,10,15,03,06,7.30
2011,10,15,03,07,7.30
2011,10,15,03,08,7.30
2011,10,15,03,09,7.20
2011,10,15,03,10,7.20
2011,10,15,03,11,7.20
2011,10,15,03,12,7.20
2011,10,15,03,13,7.10
2011,10,15,03,14,7.10
2011,10,15,03,15,7.00
2011,10,15,03,16,7.00
2011,10,15,03,17,6.90
2011,10,15,03,18,6.80
2011,10,15,03,19,6.80
2011,10,15,03,20,6.70
2011,10,15,03,21,6.70
2011,10,15,03,22,6.70
2011,10,15,03,23,6.70
2011,10,15,03,24,6.70
2011,10,15,03,25,6.80
2011,10,15,03,26,6.80
2011,10,15,03,27,6.80
2011,10,15,03,28,6.80
2011,10,15,03,29,6.80
2011,10,15,03,30,6.90
2011,10,15,03,31,6.90
2011,10,15,03,32,6.80
2011,10,15,03,33,6.80
2011,10,15,03,34,6.80
2011,10,15,03,35,6.80
2011,10,15,03,36,6.80
2011,10,15,03,37,6.80
2011,10,15,03,38,6.80
2011,10,15,03,39,6.80
2011,10,15,03,40,6.80
2011,10,15,03,41,6.80
2011,10,15,03,42,6.80
2011,10,15,03,43,6.80
2011,10,15,03,44,6.80
2011,10,15,03,45,6.80
2011,10,15,03,46,6.80
2011,10,15,03,47,6.70
2011,10,15,03,48,6.70
2011,10,15,03,49,6.70
2011,10,15,03,50,6.70
2011,10,15,03,51,6.70
2011,10,15,03,52,6.70
2011,10,15,03,53,6.70
2011,10,15,03,54,6.70
2011,10,15,03,55,6.70
2011,10,15,03,56,6.70
2011,10,15,03,57,6.70
2011,10,15,03,58,6.70
2011,10,15,03,59,6.70
2011,10,15,04,00,6.70
2011,10,15,04,01,6.70
2011,10,15,04,02,6.70
2011,10,15,04,03,6.70
2011,10,15,04,04,6.60
2011,10,15,04,05,6.60
2011,10,15,04,06,6.60
2011,10,15,04,07,6.60
2011,10,15,04,08,6.60
2011,10,15,04,09,6.50
2011,10,15,04,10,6.50
2011,10,15,04,11,6.50
2011,10,15,04,12,6.40
2011,10,15,04,13,6.40
2011,10,15,04,14,6.40
2011,10,15,04,15,6.40
2011,10,15,04,16,6.30
2011,10,15,04,17,6.30
2011,10,15,04,18,6.30
2011,10,15,04,19,6.30
2011,10,15,04,20,6.30
2011,10,15,04,21,6.30
2011,10,15,04,22,6.30
2011,10,15,04,23,6.30
2011,10,15,04,24,6.30
2011,10,15,04,25,6.20
2011,10,15,04,26,6.20
2011,10,15,04,27,6.20
2011,10,15,04,28,6.20
2011,10,15,04,29,6.20
2011,10,15,04,30,6.20
2011,10,15,04,31,6.10
2011,10,15,04,32,6.10
2011,10,15,04,33,6.10
2011,10,15,04,34,6.10
2011,10,15,04,35,6.00
2011,10,15,04,36,6.00
2011,10,15,04,37,6.00
2011,10,15,04,38,6.00
2011,10,15,04,39,5.90
2011,10,15,04,40,5.90
2011,10,15,04,41,5.90
2011,10,15,04,42,5.90
2011,10,15,04,43,5.90
2011,10,15,04,44,5.90
2011,10,15,04,45,5.80
2011,10,15,04,46,5.80
2011,10,15,04,47,5.80
2011,10,15,04,48,5.80
2011,10,15,04,49,5.80
2011,10,15,04,50,5.70
2011,10,15,04,51,5.80
2011,10,15,04,52,5.80
2011,10,15,04,53,5.80
2011,10,15,04,54,5.80
2011,10,15,04,55,5.80
2011,10,15,04,56,5.90
2011,10,15,04,57,5.90
2011,10,15,04,58,5.90
2011,10,15,04,59,5.90
2011,10,15,05,00,5.90
2011,10,15,05,01,5.90
2011,10,15,05,02,5.90
2011,10,15,05,03,5.90
2011,10,15,05,04,5.90
2011,10,15,05,05,5.90
2011,10,15,05,06,5.90
2011,10,15,05,07,5.90
2011,10,15,05,08,5.90
2011,10,15,05,09,5.80
2011,10,15,05,10,5.80
2011,10,15,05,11,5.80
2011,10,15,05,12,5.80
2011,10,15,05,13,5.80
2011,10,15,05,14,5.80
2011,10,15,05,15,5.80
2011,10,15,05,16,5.80
2011,10,15,05,17,5.90
2011,10,15,05,18,5.90
2011,10,15,05,19,5.90
2011,10,15,05,20,6.00
2011,10,15,05,21,6.00
2011,10,15,05,22,6.10
2011,10,15,05,23,6.10
2011,10,15,05,24,6.10
2011,10,15,05,25,6.10
2011,10,15,05,26,6.00
2011,10,15,05,27,6.00
2011,10,15,05,28,6.00
2011,10,15,05,29,6.00
2011,10,15,05,30,5.90
2011,10,15,05,31,5.90
2011,10,15,05,32,5.90
2011,10,15,05,33,5.90
2011,10,15,05,34,5.80
2011,10,15,05,35,5.80
2011,10,15,05,36,5.80
2011,10,15,05,37,5.70
2011,10,15,05,38,5.70
2011,10,15,05,39,5.70
2011,10,15,05,40,5.60
2011,10,15,05,41,5.60
2011,10,15,05,42,5.60
2011,10,15,05,43,5.60
2011,10,15,05,44,5.50
2011,10,15,05,45,5.50
2011,10,15,05,46,5.50
2011,10,15,05,47,5.50
2011,10,15,05,48,5.40
2011,10,15,05,49,5.40
2011,10,15,05,50,5.40
2011,10,15,05,51,5.40
2011,10,15,05,52,5.40
2011,10,15,05,53,5.40
2011,10,15,05,54,5.40
2011,10,15,05,55,5.40
2011,10,15,05,56,5.30
2011,10,15,05,57,5.30
2011,10,15,05,58,5.30
2011,10,15,05,59,5.30
2011,10,15,06,00,5.30
2011,10,15,06,01,5.30
2011,10,15,06,02,5.20
2011,10,15,06,03,5.20
2011,10,15,06,04,5.20
2011,10,15,06,05,5.20
2011,10,15,06,06,5.20
2011,10,15,06,07,5.20
2011,10,15,06,08,5.20
2011,10,15,06,09,5.20
2011,10,15,06,10,5.20
2011,10,15,06,11,5.20
2011,10,15,06,12,5.20
2011,10,15,06,13,5.20
2011,10,15,06,14,5.20
2011,10,15,06,15,5.10
2011,10,15,06,16,5.10
2011,10,15,06,17,5.10
2011,10,15,06,18,5.10
2011,10,15,06,19,5.10
2011,10,15,06,20,5.20
2011,10,15,06,21,5.20
2011,10,15,06,22,5.20
2011,10,15,06,23,5.20
2011,10,15,06,24,5.20
2011,10,15,06,25,5.20
2011,10,15,06,26,5.20
2011,10,15,06,27,5.20
2011,10,15,06,28,5.20
2011,10,15,06,29,5.20
2011,10,15,06,30,5.20
2011,10,15,06,31,5.10
2011,10,15,06,32,5.10
2011,10,15,06,33,5.10
2011,10,15,06,34,5.10
2011,10,15,06,35,5.20
2011,10,15,06,36,5.20
2011,10,15,06,37,5.20
2011,10,15,06,38,5.20
2011,10,15,06,39,5.20
2011,10,15,06,40,5.20
2011,10,15,06,41,5.20
2011,10,15,06,42,5.20
2011,10,15,06,43,5.20
2011,10,15,06,44,5.20
2011,10,15,06,45,5.20
2011,10,15,06,46,5.20
2011,10,15,06,47,5.20
2011,10,15,06,48,5.20
2011,10,15,06,49,5.20
2011,10,15,06,50,5.20
2011,10,15,06,51,5.20
2011,10,15,06,52,5.20
2011,10,15,06,53,5.20
2011,10,15,06,54,5.20
2011,10,15,06,55,5.20
2011,10,15,06,56,5.20
2011,10,15,06,57,5.20
2011,10,15,06,58,5.10
2011,10,15,06,59,5.10
2011,10,15,07,00,5.10
2011,10,15,07,01,5.10
2011,10,15,07,02,5.10
2011,10,15,07,03,5.10
2011,10,15,07,04,5.10
2011,10,15,07,05,5.10
2011,10,15,07,06,5.10
2011,10,15,07,07,5.10
2011,10,15,07,08,5.10
2011,10,15,07,09,5.10
2011,10,15,07,10,5.10
2011,10,15,07,11,5.10
2011,10,15,07,12,5.10
2011,10,15,07,13,5.10
2011,10,15,07,14,5.00
2011,10,15,07,15,5.00
2011,10,15,07,16,4.90
2011,10,15,07,17,4.90
2011,10,15,07,18,4.90
2011,10,15,07,19,4.90
2011,10,15,07,20,4.90
2011,10,15,07,21,4.90
2011,10,15,07,22,4.90
2011,10,15,07,23,5.00
2011,10,15,07,24,5.00
2011,10,15,07,25,5.10
2011,10,15,07,26,5.10
2011,10,15,07,27,5.10
2011,10,15,07,28,5.20
2011,10,15,07,29,5.20
2011,10,15,07,30,5.20
2011,10,15,07,31,5.20
2011,10,15,07,32,5.20
2011,10,15,07,33,5.20
2011,10,15,07,34,5.20
2011,10,15,07,35,5.20
2011,10,15,07,36,5.20
2011,10,15,07,37,5.10
2011,10,15,07,38,5.10
2011,10,15,07,39,5.10
2011,10,15,07,40,5.10
2011,10,15,07,41,5.10
2011,10,15,07,42,5.10
2011,10,15,07,43,5.10
2011,10,15,07,44,5.10
2011,10,15,07,45,5.10
2011,10,15,07,46,5.10
2011,10,15,07,47,5.10
2011,10,15,07,48,5.10
2011,10,15,07,49,5.10
2011,10,15,07,50,5.10
2011,10,15,07,51,5.10
2011,10,15,07,52,5.10
2011,10,15,07,53,5.10
2011,10,15,07,54,5.10
2011,10,15,07,55,5.10
2011,10,15,07,56,5.00
2011,10,15,07,57,5.00
2011,10,15,07,58,5.00
2011,10,15,07,59,5.00
2011,10,15,08,00,5.00
2011,10,15,08,01,5.00
2011,10,15,08,02,4.90
2011,10,15,08,03,4.90
2011,10,15,08,04,4.90
2011,10,15,08,05,4.90
2011,10,15,08,06,4.80
2011,10,15,08,07,4.80
2011,10,15,08,08,4.80
2011,10,15,08,09,4.90
2011,10,15,08,10,4.90
2011,10,15,08,11,4.90
2011,10,15,08,12,4.90
2011,10,15,08,13,4.90
2011,10,15,08,14,4.90
2011,10,15,08,15,4.90
2011,10,15,08,16,4.90
2011,10,15,08,17,4.80
2011,10,15,08,18,4.80
2011,10,15,08,19,4.80
2011,10,15,08,20,4.80
2011,10,15,08,21,4.80
2011,10,15,08,22,4.80
2011,10,15,08,23,4.80
2011,10,15,08,24,4.90
2011,10,15,08,25,5.00
2011,10,15,08,26,5.00
2011,10,15,08,27,5.10
2011,10,15,08,28,5.10
2011,10,15,08,29,5.20
2011,10,15,08,30,5.30
2011,10,15,08,31,5.30
2011,10,15,08,32,5.40
2011,10,15,08,33,5.50
2011,10,15,08,34,5.50
2011,10,15,08,35,5.60
2011,10,15,08,36,5.70
2011,10,15,08,37,5.70
2011,10,15,08,38,5.70
2011,10,15,08,39,5.70
2011,10,15,08,40,5.70
2011,10,15,08,41,5.70
2011,10,15,08,42,5.70
2011,10,15,08,43,5.70
2011,10,15,08,44,5.70
2011,10,15,08,45,5.70
2011,10,15,08,46,5.70
2011,10,15,08,47,5.80
2011,10,15,08,48,5.80
2011,10,15,08,49,5.90
2011,10,15,08,50,6.00
2011,10,15,08,51,6.00
2011,10,15,08,52,6.10
2011,10,15,08,53,6.20
2011,10,15,08,54,6.30
2011,10,15,08,55,6.40
2011,10,15,08,56,6.40
2011,10,15,08,57,6.50
2011,10,15,08,58,6.50
2011,10,15,08,59,6.60
2011,10,15,09,00,6.60
2011,10,15,09,01,6.70
2011,10,15,09,02,6.70
2011,10,15,09,03,6.80
2011,10,15,09,04,6.80
2011,10,15,09,05,6.80
2011,10,15,09,06,6.80
2011,10,15,09,07,6.80
2011,10,15,09,08,6.80
2011,10,15,09,09,6.90
2011,10,15,09,10,6.90
2011,10,15,09,11,7.00
2011,10,15,09,12,7.00
2011,10,15,09,13,7.10
2011,10,15,09,14,7.10
2011,10,15,09,15,7.10
2011,10,15,09,16,7.20
2011,10,15,09,17,7.20
2011,10,15,09,18,7.20
2011,10,15,09,19,7.20
2011,10,15,09,20,7.20
2011,10,15,09,21,7.30
2011,10,15,09,22,7.30
2011,10,15,09,23,7.30
2011,10,15,09,24,7.30
2011,10,15,09,25,7.40
2011,10,15,09,26,7.40
2011,10,15,09,27,7.50
2011,10,15,09,28,7.60
2011,10,15,09,29,7.60
2011,10,15,09,30,7.60
2011,10,15,09,31,7.70
2011,10,15,09,32,7.70
2011,10,15,09,33,7.70
2011,10,15,09,34,7.70
2011,10,15,09,35,7.70
2011,10,15,09,36,7.70
2011,10,15,09,37,7.70
2011,10,15,09,38,7.70
2011,10,15,09,39,7.70
2011,10,15,09,40,7.70
2011,10,15,09,41,7.70
2011,10,15,09,42,7.70
2011,10,15,09,43,7.70
2011,10,15,09,44,7.70
2011,10,15,09,45,7.70
2011,10,15,09,46,7.70
2011,10,15,09,47,7.70
2011,10,15,09,48,7.70
2011,10,15,09,49,7.80
2011,10,15,09,50,7.80
2011,10,15,09,51,7.90
2011,10,15,09,52,7.90
2011,10,15,09,53,7.90
2011,10,15,09,54,7.90
2011,10,15,09,55,7.90
2011,10,15,09,56,7.90
2011,10,15,09,57,8.00
2011,10,15,09,58,8.10
2011,10,15,09,59,8.10
2011,10,15,10,00,8.10
2011,10,15,10,01,8.00
2011,10,15,10,02,8.00
2011,10,15,10,03,8.00
2011,10,15,10,04,8.00
2011,10,15,10,05,8.00
2011,10,15,10,06,8.00
2011,10,15,10,07,8.10
2011,10,15,10,08,8.10
2011,10,15,10,09,8.10
2011,10,15,10,10,8.10
2011,10,15,10,11,8.10
2011,10,15,10,12,8.10
2011,10,15,10,13,8.10
2011,10,15,10,14,8.10
2011,10,15,10,15,8.10
2011,10,15,10,16,8.20
2011,10,15,10,17,8.20
2011,10,15,10,18,8.30
2011,10,15,10,19,8.30
2011,10,15,10,20,8.40
2011,10,15,10,21,8.40
2011,10,15,10,22,8.50
2011,10,15,10,23,8.50
2011,10,15,10,24,8.60
2011,10,15,10,25,8.60
2011,10,15,10,26,8.60
2011,10,15,10,27,8.60
2011,10,15,10,28,8.60
2011,10,15,10,29,8.60
2011,10,15,10,30,8.70
2011,10,15,10,31,8.70
2011,10,15,10,32,8.70
2011,10,15,10,33,8.80
2011,10,15,10,34,8.80
2011,10,15,10,35,8.80
2011,10,15,10,36,8.90
2011,10,15,10,37,8.90
2011,10,15,10,38,8.90
2011,10,15,10,39,8.90
2011,10,15,10,40,9.00
2011,10,15,10,41,9.00
2011,10,15,10,42,9.00
2011,10,15,10,43,9.00
2011,10,15,10,44,9.00
2011,10,15,10,45,9.00
2011,10,15,10,46,9.10
2011,10,15,10,47,9.10
2011,10,15,10,48,9.10
2011,10,15,10,49,9.10
2011,10,15,10,50,9.20
2011,10,15,10,51,9.20
2011,10,15,10,52,9.20
2011,10,15,10,53,9.30
2011,10,15,10,54,9.30
2011,10,15,10,55,9.30
2011,10,15,10,56,9.30
2011,10,15,10,57,9.20
2011,10,15,10,58,9.20
2011,10,15,10,59,9.20
2011,10,15,11,00,9.20
2011,10,15,11,01,9.20
2011,10,15,11,02,9.20
2011,10,15,11,03,9.30
2011,10,15,11,04,9.30
2011,10,15,11,05,9.30
2011,10,15,11,06,9.40
2011,10,15,11,07,9.40
2011,10,15,11,08,9.40
2011,10,15,11,09,9.50
2011,10,15,11,10,9.40
2011,10,15,11,11,9.40
2011,10,15,11,12,9.50
2011,10,15,11,13,9.50
2011,10,15,11,14,9.50
2011,10,15,11,15,9.60
2011,10,15,11,16,9.60
2011,10,15,11,17,9.60
2011,10,15,11,18,9.60
2011,10,15,11,19,9.60
2011,10,15,11,20,9.60
2011,10,15,11,21,9.60
2011,10,15,11,22,9.60
2011,10,15,11,23,9.70
2011,10,15,11,24,9.80
2011,10,15,11,25,9.80
2011,10,15,11,26,9.80
2011,10,15,11,27,9.90
2011,10,15,11,28,9.90
2011,10,15,11,29,10.00
2011,10,15,11,30,10.00
2011,10,15,11,31,10.00
2011,10,15,11,32,10.10
2011,10,15,11,33,10.10
2011,10,15,11,34,10.10
2011,10,15,11,35,10.10
2011,10,15,11,36,10.10
2011,10,15,11,37,10.10
2011,10,15,11,38,10.10
2011,10,15,11,39,10.10
2011,10,15,11,40,10.10
2011,10,15,11,41,10.20
2011,10,15,11,42,10.10
2011,10,15,11,43,10.10
2011,10,15,11,44,10.10
2011,10,15,11,45,10.10
2011,10,15,11,46,10.10
2011,10,15,11,47,10.10
2011,10,15,11,48,10.10
2011,10,15,11,49,10.00
2011,10,15,11,50,10.00
2011,10,15,11,51,10.10
2011,10,15,11,52,10.10
2011,10,15,11,53,10.10
2011,10,15,11,54,10.20
2011,10,15,11,55,10.20
2011,10,15,11,56,10.20
2011,10,15,11,57,10.20
2011,10,15,11,58,10.30
2011,10,15,11,59,10.30
2011,10,15,12,00,10.30
2011,10,15,12,01,10.20
2011,10,15,12,02,10.20
2011,10,15,12,03,10.20
2011,10,15,12,04,10.20
2011,10,15,12,05,10.30
2011,10,15,12,06,10.30
2011,10,15,12,07,10.40
2011,10,15,12,08,10.40
2011,10,15,12,09,10.40
2011,10,15,12,10,10.40
2011,10,15,12,11,10.50
2011,10,15,12,12,10.50
2011,10,15,12,13,10.50
2011,10,15,12,14,10.50
2011,10,15,12,15,10.50
2011,10,15,12,16,10.40
2011,10,15,12,17,10.40
2011,10,15,12,18,10.40
2011,10,15,12,19,10.40
2011,10,15,12,20,10.40
2011,10,15,12,21,10.40
2011,10,15,12,22,10.40
2011,10,15,12,23,10.50
2011,10,15,12,24,10.50
2011,10,15,12,25,10.60
2011,10,15,12,26,10.60
2011,10,15,12,27,10.60
2011,10,15,12,28,10.60
2011,10,15,12,29,10.60
2011,10,15,12,30,10.60
2011,10,15,12,31,10.70
2011,10,15,12,32,10.70
2011,10,15,12,33,10.80
2011,10,15,12,34,10.80
2011,10,15,12,35,10.80
2011,10,15,12,36,10.90
2011,10,15,12,37,10.90
2011,10,15,12,38,10.90
2011,10,15,12,39,10.90
2011,10,15,12,40,10.80
2011,10,15,12,41,10.90
2011,10,15,12,42,10.90
2011,10,15,12,43,10.90
2011,10,15,12,44,10.80
2011,10,15,12,45,10.80
2011,10,15,12,46,10.80
2011,10,15,12,47,10.80
2011,10,15,12,48,10.80
2011,10,15,12,49,10.80
2011,10,15,12,50,10.90
2011,10,15,12,51,10.90
2011,10,15,12,52,10.90
2011,10,15,12,53,10.90
2011,10,15,12,54,11.00
2011,10,15,12,55,11.00
2011,10,15,12,56,11.10
2011,10,15,12,57,11.10
2011,10,15,12,58,11.10
2011,10,15,12,59,11.10
2011,10,15,13,00,11.20
2011,10,15,13,01,11.20
2011,10,15,13,02,11.20
2011,10,15,13,03,11.20
2011,10,15,13,04,11.20
2011,10,15,13,05,11.20
2011,10,15,13,06,11.20
2011,10,15,13,07,11.20
2011,10,15,13,08,11.20
2011,10,15,13,09,11.10
2011,10,15,13,10,11.10
2011,10,15,13,11,11.10
2011,10,15,13,12,10.90
2011,10,15,13,13,10.80
2011,10,15,13,14,10.80
2011,10,15,13,15,10.80
2011,10,15,13,16,10.80
2011,10,15,13,17,10.80
2011,10,15,13,18,10.90
2011,10,15,13,19,10.90
2011,10,15,13,20,10.80
2011,10,15,13,21,10.80
2011,10,15,13,22,10.80
2011,10,15,13,23,10.80
2011,10,15,13,24,10.80
2011,10,15,13,25,10.90
2011,10,15,13,26,10.90
2011,10,15,13,27,10.90
2011,10,15,13,28,11.00
2011,10,15,13,29,11.00
2011,10,15,13,30,11.00
2011,10,15,13,31,11.00
2011,10,15,13,32,11.00
2011,10,15,13,33,10.90
2011,10,15,13,34,11.00
2011,10,15,13,35,11.00
2011,10,15,13,36,11.10
2011,10,15,13,37,11.10
2011,10,15,13,38,11.10
2011,10,15,13,39,11.10
2011,10,15,13,40,11.00
2011,10,15,13,41,11.00
2011,10,15,13,42,11.00
2011,10,15,13,43,11.00
2011,10,15,13,44,11.00
2011,10,15,13,45,11.00
2011,10,15,13,46,11.00
2011,10,15,13,47,11.00
2011,10,15,13,48,11.10
2011,10,15,13,49,11.10
2011,10,15,13,50,11.10
2011,10,15,13,51,11.10
2011,10,15,13,52,11.10
2011,10,15,13,53,11.10
2011,10,15,13,54,11.10
2011,10,15,13,55,11.10
2011,10,15,13,56,11.10
2011,10,15,13,57,11.10
2011,10,15,13,58,11.10
2011,10,15,13,59,11.10
2011,10,15,14,00,11.10
2011,10,15,14,01,11.10
2011,10,15,14,02,11.20
2011,10,15,14,03,11.20
2011,10,15,14,04,11.20
2011,10,15,14,05,11.30
2011,10,15,14,06,11.30
2011,10,15,14,07,11.30
2011,10,15,14,08,11.40
2011,10,15,14,09,11.40
2011,10,15,14,10,11.40
2011,10,15,14,11,11.40
2011,10,15,14,12,11.30
2011,10,15,14,13,11.30
2011,10,15,14,14,11.20
2011,10,15,14,15,11.10
2011,10,15,14,16,11.10
2011,10,15,14,17,11.10
2011,10,15,14,18,11.10
2011,10,15,14,19,11.10
2011,10,15,14,20,11.00
2011,10,15,14,21,11.00
2011,10,15,14,22,11.00
2011,10,15,14,23,10.90
2011,10,15,14,24,10.80
2011,10,15,14,25,10.80
2011,10,15,14,26,10.90
2011,10,15,14,27,10.90
2011,10,15,14,28,10.90
2011,10,15,14,29,10.90
2011,10,15,14,30,10.90
2011,10,15,14,31,10.90
2011,10,15,14,32,11.00
2011,10,15,14,33,11.00
2011,10,15,14,34,11.10
2011,10,15,14,35,11.10
2011,10,15,14,36,11.10
2011,10,15,14,37,11.20
2011,10,15,14,38,11.10
2011,10,15,14,39,11.10
2011,10,15,14,40,11.10
2011,10,15,14,41,11.10
2011,10,15,14,42,11.10
2011,10,15,14,43,11.10
2011,10,15,14,44,11.00
2011,10,15,14,45,11.00
2011,10,15,14,46,11.00
2011,10,15,14,47,10.90
2011,10,15,14,48,10.90
2011,10,15,14,49,10.80
2011,10,15,14,50,10.80
2011,10,15,14,51,10.90
2011,10,15,14,52,10.90
2011,10,15,14,53,10.90
2011,10,15,14,54,11.00
2011,10,15,14,55,11.00
2011,10,15,14,56,11.10
2011,10,15,14,57,11.10
2011,10,15,14,58,11.20
2011,10,15,14,59,11.20
2011,10,15,15,00,11.20
2011,10,15,15,01,11.20
2011,10,15,15,02,11.20
2011,10,15,15,03,11.20
2011,10,15,15,04,11.20
2011,10,15,15,05,11.20
2011,10,15,15,06,11.20
2011,10,15,15,07,11.20
2011,10,15,15,08,11.20
2011,10,15,15,09,11.20
2011,10,15,15,10,11.20
2011,10,15,15,11,11.20
2011,10,15,15,12,11.20
2011,10,15,15,13,11.30
2011,10,15,15,14,11.30
2011,10,15,15,15,11.40
2011,10,15,15,16,11.40
2011,10,15,15,17,11.40
2011,10,15,15,18,11.50
2011,10,15,15,19,11.50
2011,10,15,15,20,11.60
2011,10,15,15,21,11.70
2011,10,15,15,22,11.70
2011,10,15,15,23,11.70
2011,10,15,15,24,11.60
2011,10,15,15,25,11.60
2011,10,15,15,26,11.60
2011,10,15,15,27,11.50
2011,10,15,15,28,11.50
2011,10,15,15,29,11.40
2011,10,15,15,30,11.40
2011,10,15,15,31,11.30
2011,10,15,15,32,11.30
2011,10,15,15,33,11.30
2011,10,15,15,34,11.30
2011,10,15,15,35,11.30
2011,10,15,15,36,11.30
2011,10,15,15,37,11.20
2011,10,15,15,38,11.20
2011,10,15,15,39,11.20
2011,10,15,15,40,11.20
2011,10,15,15,41,11.10
2011,10,15,15,42,11.10
2011,10,15,15,43,11.10
2011,10,15,15,44,11.10
2011,10,15,15,45,11.10
2011,10,15,15,46,11.10
2011,10,15,15,47,11.20
2011,10,15,15,48,11.20
2011,10,15,15,49,11.30
2011,10,15,15,50,11.40
2011,10,15,15,51,11.40
2011,10,15,15,52,11.40
2011,10,15,15,53,11.40
2011,10,15,15,54,11.40
2011,10,15,15,55,11.40
2011,10,15,15,56,11.40
2011,10,15,15,57,11.40
2011,10,15,15,58,11.40
2011,10,15,15,59,11.40
2011,10,15,16,00,11.40
2011,10,15,16,01,11.40
2011,10,15,16,02,11.40
2011,10,15,16,03,11.40
2011,10,15,16,04,11.30
2011,10,15,16,05,11.30
2011,10,15,16,06,11.30
2011,10,15,16,07,11.30
2011,10,15,16,08,11.30
2011,10,15,16,09,11.30
2011,10,15,16,10,11.30
2011,10,15,16,11,11.20
2011,10,15,16,12,11.20
2011,10,15,16,13,11.20
2011,10,15,16,14,11.20
2011,10,15,16,15,11.20
2011,10,15,16,16,11.20
2011,10,15,16,17,11.20
2011,10,15,16,18,11.10
2011,10,15,16,19,11.10
2011,10,15,16,20,11.10
2011,10,15,16,21,11.10
2011,10,15,16,22,11.10
2011,10,15,16,23,11.00
2011,10,15,16,24,11.00
2011,10,15,16,25,11.00
2011,10,15,16,26,11.00
2011,10,15,16,27,11.00
2011,10,15,16,28,11.00
2011,10,15,16,29,11.00
2011,10,15,16,30,11.00
2011,10,15,16,31,11.00
2011,10,15,16,32,11.10
2011,10,15,16,33,11.10
2011,10,15,16,34,11.10
2011,10,15,16,35,11.10
2011,10,15,16,36,11.10
2011,10,15,16,37,11.10
2011,10,15,16,38,11.10
2011,10,15,16,39,11.10
2011,10,15,16,40,11.10
2011,10,15,16,41,11.20
2011,10,15,16,42,11.20
2011,10,15,16,43,11.10
2011,10,15,16,44,11.10
2011,10,15,16,45,11.00
2011,10,15,16,46,11.00
2011,10,15,16,47,11.00
2011,10,15,16,48,10.90
2011,10,15,16,49,10.90
2011,10,15,16,50,10.90
2011,10,15,16,51,10.80
2011,10,15,16,52,10.80
2011,10,15,16,53,10.80
2011,10,15,16,54,10.80
2011,10,15,16,55,10.80
2011,10,15,16,56,10.80
2011,10,15,16,57,10.80
2011,10,15,16,58,10.80
2011,10,15,16,59,10.80
2011,10,15,17,00,10.80
2011,10,15,17,01,10.80
2011,10,15,17,02,10.80
2011,10,15,17,03,10.80
2011,10,15,17,04,10.70
2011,10,15,17,05,10.70
2011,10,15,17,06,10.70
2011,10,15,17,07,10.70
2011,10,15,17,08,10.60
2011,10,15,17,09,10.60
2011,10,15,17,10,10.60
2011,10,15,17,11,10.60
2011,10,15,17,12,10.60
2011,10,15,17,13,10.50
2011,10,15,17,14,10.50
2011,10,15,17,15,10.50
2011,10,15,17,16,10.40
2011,10,15,17,17,10.40
2011,10,15,17,18,10.40
2011,10,15,17,19,10.30
2011,10,15,17,20,10.30
2011,10,15,17,21,10.30
2011,10,15,17,22,10.20
2011,10,15,17,23,10.20
2011,10,15,17,24,10.20
2011,10,15,17,25,10.20
2011,10,15,17,26,10.20
2011,10,15,17,27,10.10
2011,10,15,17,28,10.10
2011,10,15,17,29,10.10
2011,10,15,17,30,10.10
2011,10,15,17,31,10.10
2011,10,15,17,32,10.00
2011,10,15,17,33,10.00
2011,10,15,17,34,9.90
2011,10,15,17,35,9.90
2011,10,15,17,36,9.90
2011,10,15,17,37,9.80
2011,10,15,17,38,9.80
2011,10,15,17,39,9.80
2011,10,15,17,40,9.70
2011,10,15,17,41,9.70
2011,10,15,17,42,9.60
2011,10,15,17,43,9.60
2011,10,15,17,44,9.50
2011,10,15,17,45,9.40
2011,10,15,17,46,9.40
2011,10,15,17,47,9.30
2011,10,15,17,48,9.30
2011,10,15,17,49,9.30
2011,10,15,17,50,9.20
2011,10,15,17,51,9.20
2011,10,15,17,52,9.20
2011,10,15,17,53,9.10